Flag for Austria Weather past 2 weeks in Waidhofen an der Ybbs, Lower Austria, Austria

Now
63 °F

Fog.


Feels Like: 63 °F
Forecast: 51 / 72 °F
Wind: 2 mph from Southeast

Location: Amstetten

Current Time: Sep 2, 2015 at 7:22:52 PM

Latest Report: Sep 2, 2015 at 6:00 PM


Visibility: N/A

Pressure: 29.96 "Hg

Humidity: 87%

Dew point: 59 °F

Location of Waidhofen an der YbbsLocation

Historic Weather in Waidhofen an der Ybbs — Graph

°F

Waidhofen an der Ybbs temperature yesterday

Maximum temperature yesterday: 94 °F (at 4:00 PM)
Minimum temperature yesterday: 60 °F (at 7:00 AM)
Average temperature yesterday: 78 °F

Past Weeks' High & Low Weather Summary

 TemperatureHumidityPressure
High95 °F (Aug 30, 5:00 PM)100% (Aug 22, 6:00 AM)30.26 "Hg (Aug 22, 6:00 AM)
Low47 °F (Aug 26, 6:00 AM)22% (Sep 1, 3:00 PM)29.65 "Hg (Sep 1, 7:00 PM)
Average69 °F66%30.02 "Hg
* Reported Aug 18 6:00 PM — Sep 2 6:00 PM, Waidhofen an der Ybbs, Weather by CustomWeather, © 2015

Note: Actual official high and low records may vary slightly from our data, if they occured in-between our weather recording intervals... More about our weather records

Advertising

Waidhofen an der Ybbs weather history for previous 24 hours

 ConditionsComfort  
Time TempWeatherWind HumidityBarometerVisibility
6:00 PM
Wed, Sep 2
63 °FFog.2 mph87%29.96 "HgN/A
5:00 PM67 °FMild.2 mph73%29.96 "HgN/A
4:00 PM69 °FMild.2 mph63%29.96 "HgN/A
3:00 PM68 °FMild.1 mph66%29.97 "HgN/A
2:00 PM67 °FMild.1 mph73%29.99 "HgN/A
1:00 PM66 °FMild.1 mph77%30.01 "HgN/A
12:00 PM63 °FMild.2 mph87%30.03 "HgN/A
11:00 AM63 °FMild.3 mph86%30.03 "HgN/A
10:00 AM63 °FMild.2 mph87%30.03 "HgN/A
9:00 AM62 °FCool.2 mph94%30.03 "HgN/A
8:00 AM61 °FOvercast.1 mph93%30.02 "HgN/A
7:00 AM63 °FMild.3 mph87%30.00 "HgN/A
5:00 AM64 °FMild.3 mph92%29.96 "HgN/A
4:00 AM64 °FFog.3 mph95%29.97 "HgN/A
3:00 AM65 °FMild.3 mph90%29.96 "HgN/A
2:00 AM69 °FMild.5 mph74%29.95 "HgN/A
1:00 AM71 °FMild.5 mph66%29.93 "HgN/A
12:00 AM72 °FMild.5 mph62%29.91 "HgN/A
11:00 PM
Tue, Sep 1
74 °FMild.7 mph57%29.86 "HgN/A
10:00 PM77 °FWarm.6 mph48%29.81 "HgN/A
9:00 PM80 °FWarm.5 mph47%29.74 "HgN/A
8:00 PM84 °FWarm.No wind42%29.66 "HgN/A
7:00 PM89 °FHot.3 mph35%29.65 "HgN/A
Weather by CustomWeather, © 2015

See weather overviewHow to use our weather pages